{"data":{"norad_id":57965,"epoch":"2026-09-20T20:48:06.472512Z","epoch_age_seconds":105924,"freshness":"FRESH","line1":"1 57965U 23151B   26263.86674158  .00000583  00000+0  30713-4 0  9991","line2":"2 57965  43.0058 313.9794 0001874 272.4238  87.6399 15.27577374165617","mean_motion":15.27577374,"eccentricity":0.0001874,"inclination_deg":43.0058,"raan_deg":313.9794,"arg_perigee_deg":272.4238,"mean_anomaly_deg":87.6399,"bstar":3.0713e-5,"rev_number":16561,"period_min":94.266910764024,"perigee_km":481.77117149165,"apogee_km":484.34274698757997,"semimajor_km":6861.1939592396,"source":"CELESTRAK","updated_at":"2026-09-21T09:00:33.748716Z"}}